This demonstration page uses our WeatherBlox Daily Observations layout. Learn more.

Left ArrowRight Arrow

Hourly Observations for June 2, 2022

Temp ( °F °C ) Dew Point ( °F °C ) Humidity (%) Winds ( mph kmh ) Pressure ( in mb ) Visibility ( mi km ) Precip ( " mm )
12:52 am 00:52 Clear 55 12.8 43 6.1 64 64 N 3 6 30.07 1018 10 16 0.00 0.00
1:52 am 01:52 Clear 52 11.1 43 6.1 72 72 NNW 3 6 30.07 1018 10 16 0.00 0.00
2:52 am 02:52 Clear 52 11.1 45 7.2 77 77 Calm 30.06 1018 10 16 0.00 0.00
3:52 am 03:52 Clear 50 10 43 6.1 77 77 Calm 30.06 1018 10 16 0.00 0.00
4:52 am 04:52 Clear 48 8.9 44 6.7 86 86 Calm 30.06 1018 10 16 0.00 0.00
5:52 am 05:52 Mostly Clear 48 8.9 43 6.1 83 83 Calm 30.06 1018 10 16 0.00 0.00
6:52 am 06:52 Mostly Sunny 50 10 43 6.1 77 77 SE 3 6 30.08 1019 10 16 0.00 0.00
7:52 am 07:52 Sunny 54 12.2 47 8.3 77 77 SE 3 6 30.09 1019 10 16 0.00 0.00
8:52 am 08:52 Mostly Sunny 61 16.1 45 7.2 56 56 Calm 30.08 1019 10 16 0.00 0.00
9:52 am 09:52 Mostly Sunny 67 19.4 43 6.1 42 42 WNW 5 7 30.07 1018 10 16 0.00 0.00
10:52 am 10:52 Mostly Sunny 70 21.1 42 5.6 37 37 WSW 8 13 30.07 1018 10 16 0.00 0.00
11:52 am 11:52 Mostly Sunny 72 22.2 37 2.8 28 28 Calm 30.07 1018 10 16 0.00 0.00
12:52 pm 12:52 Partly Cloudy 74 23.3 39 3.9 28 28 WSW 10 17 30.04 1017 10 16 0.00 0.00
1:52 pm 13:52 Partly Cloudy 76 24.4 41 5 29 29 VRB 3 6 30.02 1017 10 16 0.00 0.00
2:52 pm 14:52 Partly Cloudy 77 25 41 5 28 28 SW 10 17 29.99 1016 10 16 0.00 0.00
3:52 pm 15:52 Partly Cloudy 78 25.6 39 3.9 25 25 W 13 20 29.97 1015 10 16 0.00 0.00
4:52 pm 16:52 Partly Cloudy 80 26.7 40 4.4 24 24 WNW 10 17 29.95 1014 9 14 0.00 0.00
5:52 pm 17:52 Partly Cloudy 81 27.2 41 5 24 24 NW 7 11 29.94 1014 10 16 0.00 0.00
6:52 pm 18:52 Partly Cloudy 77 25 44 6.7 31 31 WNW 8 13 29.93 1014 10 16 0.00 0.00
7:52 pm 19:52 Mostly Sunny 78 25.6 43 6.1 29 29 W 8 13 29.92 1013 10 16 0.00 0.00
8:52 pm 20:52 Mostly Clear 75 23.9 43 6.1 32 32 W 3 6 29.92 1013 10 16 0.00 0.00
9:52 pm 21:52 Partly Cloudy 66 18.9 49 9.4 54 54 Calm 29.94 1014 10 16 0.00 0.00
10:52 pm 22:52 Mostly Clear 65 18.3 49 9.4 56 56 Calm 29.95 1014 10 16 0.00 0.00
11:52 pm 23:52 Mostly Clear 58 14.4 51 10.6 78 78 NNW 5 7 29.96 1015 10 16 0.00 0.00

Powered by AerisWeather